Weather History for Moses Lake, WA

Change the Weather History Date:

Wednesday, February 6, 2013

  Actual Average Record
Temperature  
Mean Temperature 39 °F 33 °F  
Max Temperature 49 °F 41 °F 50 °F (1998)
Min Temperature 28 °F 26 °F -4 °F (1985)
Degree Days  
Heating Degree Days 26 32  
Month to date heating degree days 178 193  
Since 1 July heating degree days 3532 3867  
Cooling Degree Days 0 0  
Month to date cooling degree days 0 0  
Year to date cooling degree days 0 0  
Moisture  
Dew Point 29 °F    
Average Humidity 69    
Maximum Humidity 92    
Minimum Humidity 46    
Precipitation  
Precipitation 0.00 in 0.04 in 0.14 in (1999)
Month to date precipitation 0.00 0.23  
Year to date precipitation 0.28 1.37  
Sea Level Pressure  
Sea Level Pressure 30.01 in    
Wind  
Wind Speed 6 mph (South)    
Max Wind Speed 14 mph    
Max Gust Speed 17 mph    
Visibility 10 miles    
Events      
T = Trace of Precipitation, MM = Missing Value Source: NWS Daily Summary

Daily Weather History Graph

Daily Weather History Graph

Search for Another Location

Airport:

Trip Planner

Search our weather history database for the weather conditions in past years. The results will help you decide how hot, cold, wet, or windy it might be!

Date:

Astronomy

Feb. 06, 2013 Rise Set
Actual Time 7:15 AM PST 5:07 PM PST
Civil Twilight 6:43 AM PST 5:40 PM PST
Nautical Twilight 6:07 AM PST 6:16 PM PST
Astronomical Twilight 5:31 AM PST 6:52 PM PST
Moon 4:11 AM PST (2/6) 1:23 PM PST (2/6)
Length of Visible Light 10h 56m
Length of Day
9h 52m
Waning Crescent, 16% of the Moon is Illuminated
Feb 6
Waning Crescent
Feb 9
New
Feb 17
First Quarter
Feb 25
Full
Mar 4
Last Quarter

Hourly Weather History & Observations

Time (PST) Temp. Windchill Dew Point Humidity Pressure Visibility Wind Dir Wind Speed Gust Speed Precip Events Conditions
12:52 AM 28.9 °F 25.2 °F 25.0 °F 85% 29.96 in 9.0 mi NE 3.5 mph - N/A   Clear
1:52 AM 33.1 °F 26.9 °F 28.9 °F 85% 29.96 in 10.0 mi SSW 6.9 mph - N/A   Clear
2:52 AM 34.0 °F 28.0 °F 30.0 °F 85% 29.96 in 10.0 mi SSW 6.9 mph - N/A   Partly Cloudy
3:52 AM 34.0 °F 29.8 °F 28.9 °F 82% 29.98 in 10.0 mi SSW 4.6 mph - N/A   Clear
4:52 AM 30.2 °F - 26.6 °F 86% 29.97 in 10.0 mi Calm Calm - N/A   Scattered Clouds
5:52 AM 30.0 °F 24.1 °F 26.1 °F 85% 30.01 in 10.0 mi SSE 5.8 mph - N/A   Clear
6:52 AM 32.0 °F 24.8 °F 27.0 °F 82% 30.02 in 10.0 mi South 8.1 mph - N/A   Clear
7:52 AM 33.1 °F - 27.0 °F 78% 30.04 in 10.0 mi Calm Calm - N/A   Clear
8:52 AM 37.9 °F 34.4 °F 30.0 °F 73% 30.06 in 10.0 mi South 4.6 mph - N/A   Clear
9:52 AM 42.1 °F 36.1 °F 32.0 °F 67% 30.07 in 10.0 mi SW 10.4 mph - N/A   Clear
10:52 AM 46.0 °F 40.2 °F 32.0 °F 58% 30.07 in 10.0 mi SSW 12.7 mph - N/A   Clear
11:52 AM 46.9 °F - 32.0 °F 56% 30.06 in 10.0 mi SSW 9.2 mph - N/A   Clear
12:52 PM 48.9 °F - 32.0 °F 52% 30.05 in 10.0 mi SSW 9.2 mph - N/A   Clear
1:52 PM 48.0 °F - 30.0 °F 50% 30.04 in 10.0 mi SW 9.2 mph - N/A   Clear
2:52 PM 48.9 °F - 30.0 °F 48% 30.04 in 10.0 mi SW 5.8 mph - N/A   Clear
3:52 PM 48.0 °F - 28.9 °F 48% 30.03 in 10.0 mi South 5.8 mph - N/A   Mostly Cloudy
4:52 PM 44.1 °F 41.5 °F 30.9 °F 60% 30.03 in 10.0 mi SSE 4.6 mph - N/A   Overcast
5:52 PM 43.0 °F 40.3 °F 30.0 °F 60% 30.02 in 10.0 mi ESE 4.6 mph - N/A   Mostly Cloudy
6:52 PM 41.0 °F 37.1 °F 30.9 °F 67% 30.01 in 10.0 mi East 5.8 mph - N/A   Overcast
7:52 PM 39.9 °F 37.8 °F 30.9 °F 70% 30.00 in 10.0 mi ESE 3.5 mph - N/A   Overcast
8:52 PM 39.2 °F 35.0 °F 30.2 °F 70% 29.95 in 10.0 mi ENE 5.8 mph - N/A   Mostly Cloudy
9:52 PM 36.0 °F - 28.9 °F 76% 29.97 in 10.0 mi Calm Calm - N/A   Partly Cloudy
10:52 PM 37.9 °F 34.4 °F 30.0 °F 73% 29.94 in 10.0 mi ENE 4.6 mph - N/A   Partly Cloudy
11:52 PM 36.0 °F 33.3 °F 28.9 °F 76% 29.93 in 10.0 mi NNE 3.5 mph - N/A   Scattered Clouds